Year,Month,Day,Hour,Minute,Value (Times are PST for temperature in C)
2012,07,05,00,00,9.90
2012,07,05,00,01,9.90
2012,07,05,00,02,9.90
2012,07,05,00,03,9.90
2012,07,05,00,04,9.80
2012,07,05,00,05,9.80
2012,07,05,00,06,9.90
2012,07,05,00,07,9.90
2012,07,05,00,08,9.80
2012,07,05,00,09,9.80
2012,07,05,00,10,9.80
2012,07,05,00,11,9.80
2012,07,05,00,12,9.80
2012,07,05,00,13,9.80
2012,07,05,00,14,9.80
2012,07,05,00,15,9.80
2012,07,05,00,16,9.80
2012,07,05,00,17,9.80
2012,07,05,00,18,9.80
2012,07,05,00,19,9.80
2012,07,05,00,20,9.80
2012,07,05,00,21,9.80
2012,07,05,00,22,9.80
2012,07,05,00,23,9.80
2012,07,05,00,24,9.80
2012,07,05,00,25,9.70
2012,07,05,00,26,9.70
2012,07,05,00,27,9.70
2012,07,05,00,28,9.70
2012,07,05,00,29,9.70
2012,07,05,00,30,9.70
2012,07,05,00,31,9.70
2012,07,05,00,32,9.70
2012,07,05,00,33,9.70
2012,07,05,00,34,9.70
2012,07,05,00,35,9.70
2012,07,05,00,36,9.60
2012,07,05,00,37,9.60
2012,07,05,00,38,9.60
2012,07,05,00,39,9.60
2012,07,05,00,40,9.60
2012,07,05,00,41,9.60
2012,07,05,00,42,9.60
2012,07,05,00,43,9.60
2012,07,05,00,44,9.60
2012,07,05,00,45,9.60
2012,07,05,00,46,9.60
2012,07,05,00,47,9.60
2012,07,05,00,48,9.60
2012,07,05,00,49,9.60
2012,07,05,00,50,9.60
2012,07,05,00,51,9.60
2012,07,05,00,52,9.60
2012,07,05,00,53,9.60
2012,07,05,00,54,9.60
2012,07,05,00,55,9.60
2012,07,05,00,56,9.60
2012,07,05,00,57,9.60
2012,07,05,00,58,9.60
2012,07,05,00,59,9.60
2012,07,05,01,00,9.60
2012,07,05,01,01,9.60
2012,07,05,01,02,9.60
2012,07,05,01,03,9.60
2012,07,05,01,04,9.60
2012,07,05,01,05,9.60
2012,07,05,01,06,9.60
2012,07,05,01,07,9.60
2012,07,05,01,08,9.60
2012,07,05,01,09,9.60
2012,07,05,01,10,9.60
2012,07,05,01,11,9.60
2012,07,05,01,12,9.60
2012,07,05,01,13,9.60
2012,07,05,01,14,9.60
2012,07,05,01,15,9.60
2012,07,05,01,16,9.60
2012,07,05,01,17,9.60
2012,07,05,01,18,9.60
2012,07,05,01,19,9.60
2012,07,05,01,20,9.60
2012,07,05,01,21,9.60
2012,07,05,01,22,9.60
2012,07,05,01,23,9.60
2012,07,05,01,24,9.60
2012,07,05,01,25,9.60
2012,07,05,01,26,9.60
2012,07,05,01,27,9.60
2012,07,05,01,28,9.60
2012,07,05,01,29,9.60
2012,07,05,01,30,9.60
2012,07,05,01,31,9.60
2012,07,05,01,32,9.60
2012,07,05,01,33,9.70
2012,07,05,01,34,9.70
2012,07,05,01,35,9.70
2012,07,05,01,36,9.70
2012,07,05,01,37,9.70
2012,07,05,01,38,9.70
2012,07,05,01,39,9.70
2012,07,05,01,40,9.70
2012,07,05,01,41,9.70
2012,07,05,01,42,9.70
2012,07,05,01,43,9.70
2012,07,05,01,44,9.70
2012,07,05,01,45,9.70
2012,07,05,01,46,9.70
2012,07,05,01,47,9.70
2012,07,05,01,48,9.70
2012,07,05,01,49,9.70
2012,07,05,01,50,9.70
2012,07,05,01,51,9.70
2012,07,05,01,52,9.70
2012,07,05,01,53,9.70
2012,07,05,01,54,9.70
2012,07,05,01,55,9.70
2012,07,05,01,56,9.70
2012,07,05,01,57,9.60
2012,07,05,01,58,9.60
2012,07,05,01,59,9.70
2012,07,05,02,00,9.70
2012,07,05,02,01,9.70
2012,07,05,02,02,9.70
2012,07,05,02,03,9.70
2012,07,05,02,04,9.70
2012,07,05,02,05,9.70
2012,07,05,02,06,9.70
2012,07,05,02,07,9.70
2012,07,05,02,08,9.70
2012,07,05,02,09,9.70
2012,07,05,02,10,9.70
2012,07,05,02,11,9.70
2012,07,05,02,12,9.70
2012,07,05,02,13,9.70
2012,07,05,02,14,9.70
2012,07,05,02,15,9.70
2012,07,05,02,16,9.70
2012,07,05,02,17,9.70
2012,07,05,02,18,9.70
2012,07,05,02,19,9.70
2012,07,05,02,20,9.70
2012,07,05,02,21,9.60
2012,07,05,02,22,9.60
2012,07,05,02,23,9.60
2012,07,05,02,24,9.60
2012,07,05,02,25,9.60
2012,07,05,02,26,9.60
2012,07,05,02,27,9.60
2012,07,05,02,28,9.60
2012,07,05,02,29,9.60
2012,07,05,02,30,9.60
2012,07,05,02,31,9.60
2012,07,05,02,32,9.50
2012,07,05,02,33,9.50
2012,07,05,02,34,9.50
2012,07,05,02,35,9.50
2012,07,05,02,36,9.50
2012,07,05,02,37,9.50
2012,07,05,02,38,9.50
2012,07,05,02,39,9.50
2012,07,05,02,40,9.50
2012,07,05,02,41,9.50
2012,07,05,02,42,9.50
2012,07,05,02,43,9.50
2012,07,05,02,44,9.50
2012,07,05,02,45,9.50
2012,07,05,02,46,9.50
2012,07,05,02,47,9.60
2012,07,05,02,48,9.60
2012,07,05,02,49,9.60
2012,07,05,02,50,9.60
2012,07,05,02,51,9.60
2012,07,05,02,52,9.60
2012,07,05,02,53,9.60
2012,07,05,02,54,9.60
2012,07,05,02,55,9.60
2012,07,05,02,56,9.60
2012,07,05,02,57,9.60
2012,07,05,02,58,9.60
2012,07,05,02,59,9.60
2012,07,05,03,00,9.60
2012,07,05,03,01,9.60
2012,07,05,03,02,9.60
2012,07,05,03,03,9.60
2012,07,05,03,04,9.60
2012,07,05,03,05,9.60
2012,07,05,03,06,9.60
2012,07,05,03,07,9.60
2012,07,05,03,08,9.60
2012,07,05,03,09,9.60
2012,07,05,03,10,9.60
2012,07,05,03,11,9.60
2012,07,05,03,12,9.50
2012,07,05,03,13,9.50
2012,07,05,03,14,9.50
2012,07,05,03,15,9.50
2012,07,05,03,16,9.50
2012,07,05,03,17,9.50
2012,07,05,03,18,9.50
2012,07,05,03,19,9.40
2012,07,05,03,20,9.50
2012,07,05,03,21,9.40
2012,07,05,03,22,9.40
2012,07,05,03,23,9.40
2012,07,05,03,24,9.40
2012,07,05,03,25,9.40
2012,07,05,03,26,9.40
2012,07,05,03,27,9.40
2012,07,05,03,28,9.40
2012,07,05,03,29,9.40
2012,07,05,03,30,9.40
2012,07,05,03,31,9.40
2012,07,05,03,32,9.40
2012,07,05,03,33,9.40
2012,07,05,03,34,9.40
2012,07,05,03,35,9.40
2012,07,05,03,36,9.40
2012,07,05,03,37,9.40
2012,07,05,03,38,9.40
2012,07,05,03,39,9.40
2012,07,05,03,40,9.40
2012,07,05,03,41,9.30
2012,07,05,03,42,9.30
2012,07,05,03,43,9.30
2012,07,05,03,44,9.30
2012,07,05,03,49,9.30
2012,07,05,03,50,9.30
2012,07,05,03,51,9.30
2012,07,05,03,52,9.30
2012,07,05,03,53,9.30
2012,07,05,03,54,9.30
2012,07,05,03,55,9.20
2012,07,05,03,56,9.20
2012,07,05,03,57,9.20
2012,07,05,03,58,9.20
2012,07,05,03,59,9.20
2012,07,05,04,00,9.20
2012,07,05,04,01,9.10
2012,07,05,04,02,9.10
2012,07,05,04,03,9.10
2012,07,05,04,04,9.10
2012,07,05,04,05,9.10
2012,07,05,04,06,9.10
2012,07,05,04,07,9.10
2012,07,05,04,08,9.10
2012,07,05,04,09,9.10
2012,07,05,04,10,9.00
2012,07,05,04,11,9.00
2012,07,05,04,12,9.00
2012,07,05,04,13,9.00
2012,07,05,04,14,9.00
2012,07,05,04,15,8.90
2012,07,05,04,16,8.90
2012,07,05,04,17,8.90
2012,07,05,04,18,8.90
2012,07,05,04,19,8.90
2012,07,05,04,20,8.90
2012,07,05,04,21,8.90
2012,07,05,04,22,8.90
2012,07,05,04,23,8.90
2012,07,05,04,24,8.90
2012,07,05,04,25,8.90
2012,07,05,04,26,8.90
2012,07,05,04,27,8.90
2012,07,05,04,28,8.90
2012,07,05,04,29,8.80
2012,07,05,04,30,8.80
2012,07,05,04,31,8.80
2012,07,05,04,32,8.80
2012,07,05,04,33,8.80
2012,07,05,04,34,8.80
2012,07,05,04,35,8.80
2012,07,05,04,36,8.70
2012,07,05,04,37,8.70
2012,07,05,04,38,8.70
2012,07,05,04,39,8.70
2012,07,05,04,40,8.70
2012,07,05,04,41,8.70
2012,07,05,04,42,8.70
2012,07,05,04,43,8.70
2012,07,05,04,44,8.70
2012,07,05,04,45,8.60
2012,07,05,04,46,8.60
2012,07,05,04,47,8.60
2012,07,05,04,48,8.60
2012,07,05,04,49,8.60
2012,07,05,04,50,8.60
2012,07,05,04,51,8.50
2012,07,05,04,52,8.50
2012,07,05,04,53,8.50
2012,07,05,04,54,8.50
2012,07,05,04,55,8.50
2012,07,05,04,56,8.40
2012,07,05,04,57,8.40
2012,07,05,04,58,8.40
2012,07,05,04,59,8.40
2012,07,05,05,00,8.40
2012,07,05,05,01,8.40
2012,07,05,05,02,8.40
2012,07,05,05,03,8.40
2012,07,05,05,04,8.40
2012,07,05,05,05,8.40
2012,07,05,05,06,8.40
2012,07,05,05,07,8.30
2012,07,05,05,08,8.30
2012,07,05,05,09,8.30
2012,07,05,05,10,8.30
2012,07,05,05,11,8.30
2012,07,05,05,12,8.30
2012,07,05,05,13,8.30
2012,07,05,05,14,8.30
2012,07,05,05,15,8.30
2012,07,05,05,16,8.30
2012,07,05,05,17,8.20
2012,07,05,05,18,8.20
2012,07,05,05,19,8.20
2012,07,05,05,20,8.20
2012,07,05,05,21,8.20
2012,07,05,05,22,8.10
2012,07,05,05,23,8.10
2012,07,05,05,24,8.10
2012,07,05,05,25,8.10
2012,07,05,05,26,8.00
2012,07,05,05,27,8.00
2012,07,05,05,28,8.00
2012,07,05,05,29,8.00
2012,07,05,05,30,8.00
2012,07,05,05,31,8.00
2012,07,05,05,32,8.00
2012,07,05,05,33,8.00
2012,07,05,05,34,8.00
2012,07,05,05,35,8.00
2012,07,05,05,36,8.00
2012,07,05,05,37,8.00
2012,07,05,05,38,8.00
2012,07,05,05,39,8.00
2012,07,05,05,40,8.00
2012,07,05,05,41,8.00
2012,07,05,05,42,8.00
2012,07,05,05,43,8.00
2012,07,05,05,44,8.00
2012,07,05,05,45,8.00
2012,07,05,05,46,8.00
2012,07,05,05,47,8.00
2012,07,05,05,48,8.00
2012,07,05,05,49,8.00
2012,07,05,05,50,8.00
2012,07,05,05,51,8.10
2012,07,05,05,52,8.10
2012,07,05,05,53,8.10
2012,07,05,05,54,8.10
2012,07,05,05,55,8.10
2012,07,05,05,56,8.10
2012,07,05,05,57,8.10
2012,07,05,05,58,8.10
2012,07,05,05,59,8.10
2012,07,05,06,00,8.10
2012,07,05,06,01,8.10
2012,07,05,06,02,8.10
2012,07,05,06,03,8.20
2012,07,05,06,04,8.20
2012,07,05,06,05,8.20
2012,07,05,06,06,8.20
2012,07,05,06,07,8.30
2012,07,05,06,08,8.30
2012,07,05,06,09,8.30
2012,07,05,06,10,8.30
2012,07,05,06,11,8.40
2012,07,05,06,12,8.40
2012,07,05,06,13,8.40
2012,07,05,06,14,8.40
2012,07,05,06,15,8.50
2012,07,05,06,16,8.50
2012,07,05,06,17,8.60
2012,07,05,06,18,8.60
2012,07,05,06,19,8.60
2012,07,05,06,20,8.70
2012,07,05,06,21,8.70
2012,07,05,06,22,8.70
2012,07,05,06,23,8.80
2012,07,05,06,24,8.90
2012,07,05,06,25,8.90
2012,07,05,06,26,9.00
2012,07,05,06,27,9.10
2012,07,05,06,28,9.10
2012,07,05,06,29,9.20
2012,07,05,06,30,9.20
2012,07,05,06,31,9.30
2012,07,05,06,32,9.30
2012,07,05,06,33,9.40
2012,07,05,06,34,9.40
2012,07,05,06,35,9.40
2012,07,05,06,36,9.50
2012,07,05,06,37,9.50
2012,07,05,06,38,9.60
2012,07,05,06,39,9.60
2012,07,05,06,40,9.70
2012,07,05,06,41,9.70
2012,07,05,06,42,9.70
2012,07,05,06,43,9.70
2012,07,05,06,44,9.70
2012,07,05,06,45,9.70
2012,07,05,06,46,9.80
2012,07,05,06,47,9.80
2012,07,05,06,48,9.80
2012,07,05,06,49,9.90
2012,07,05,06,50,9.90
2012,07,05,06,51,9.90
2012,07,05,06,52,9.90
2012,07,05,06,53,10.00
2012,07,05,06,54,10.10
2012,07,05,06,55,10.10
2012,07,05,06,56,10.20
2012,07,05,06,57,10.20
2012,07,05,06,58,10.30
2012,07,05,06,59,10.30
2012,07,05,07,00,10.40
2012,07,05,07,01,10.40
2012,07,05,07,02,10.50
2012,07,05,07,03,10.60
2012,07,05,07,04,10.60
2012,07,05,07,05,10.70
2012,07,05,07,06,10.80
2012,07,05,07,07,10.80
2012,07,05,07,08,10.90
2012,07,05,07,09,11.00
2012,07,05,07,10,11.10
2012,07,05,07,11,11.20
2012,07,05,07,12,11.20
2012,07,05,07,13,11.30
2012,07,05,07,14,11.30
2012,07,05,07,15,11.40
2012,07,05,07,16,11.40
2012,07,05,07,17,11.50
2012,07,05,07,18,11.50
2012,07,05,07,19,11.60
2012,07,05,07,20,11.60
2012,07,05,07,21,11.70
2012,07,05,07,22,11.70
2012,07,05,07,23,11.80
2012,07,05,07,24,11.80
2012,07,05,07,25,11.90
2012,07,05,07,26,12.00
2012,07,05,07,27,12.00
2012,07,05,07,28,12.10
2012,07,05,07,29,12.20
2012,07,05,07,30,12.30
2012,07,05,07,31,12.30
2012,07,05,07,32,12.40
2012,07,05,07,33,12.50
2012,07,05,07,34,12.60
2012,07,05,07,35,12.70
2012,07,05,07,36,12.80
2012,07,05,07,37,12.90
2012,07,05,07,38,13.00
2012,07,05,07,39,13.10
2012,07,05,07,40,13.20
2012,07,05,07,41,13.20
2012,07,05,07,42,13.30
2012,07,05,07,43,13.30
2012,07,05,07,44,13.40
2012,07,05,07,45,13.50
2012,07,05,07,46,13.60
2012,07,05,07,47,13.60
2012,07,05,07,48,13.70
2012,07,05,07,49,13.80
2012,07,05,07,50,13.80
2012,07,05,07,51,13.90
2012,07,05,07,52,14.00
2012,07,05,07,53,14.00
2012,07,05,07,54,14.00
2012,07,05,07,55,14.10
2012,07,05,07,56,14.10
2012,07,05,07,57,14.20
2012,07,05,07,58,14.20
2012,07,05,07,59,14.20
2012,07,05,08,00,14.30
2012,07,05,08,01,14.30
2012,07,05,08,02,14.30
2012,07,05,08,03,14.30
2012,07,05,08,04,14.40
2012,07,05,08,05,14.40
2012,07,05,08,06,14.50
2012,07,05,08,07,14.60
2012,07,05,08,08,14.70
2012,07,05,08,09,14.80
2012,07,05,08,10,14.90
2012,07,05,08,11,15.00
2012,07,05,08,12,15.00
2012,07,05,08,13,15.00
2012,07,05,08,14,15.00
2012,07,05,08,15,15.10
2012,07,05,08,16,15.20
2012,07,05,08,17,15.30
2012,07,05,08,18,15.40
2012,07,05,08,19,15.50
2012,07,05,08,20,15.60
2012,07,05,08,21,15.60
2012,07,05,08,22,15.70
2012,07,05,08,23,15.70
2012,07,05,08,24,15.80
2012,07,05,08,25,15.80
2012,07,05,08,26,15.80
2012,07,05,08,27,15.90
2012,07,05,08,28,16.00
2012,07,05,08,29,16.10
2012,07,05,08,30,16.10
2012,07,05,08,31,16.30
2012,07,05,08,32,16.30
2012,07,05,08,33,16.40
2012,07,05,08,34,16.40
2012,07,05,08,35,16.30
2012,07,05,08,36,16.30
2012,07,05,08,37,16.30
2012,07,05,08,38,16.20
2012,07,05,08,39,16.30
2012,07,05,08,40,16.30
2012,07,05,08,41,16.40
2012,07,05,08,42,16.50
2012,07,05,08,43,16.60
2012,07,05,08,44,16.70
2012,07,05,08,45,16.70
2012,07,05,08,46,16.80
2012,07,05,08,47,16.80
2012,07,05,08,48,16.80
2012,07,05,08,49,16.80
2012,07,05,08,50,16.70
2012,07,05,08,51,16.70
2012,07,05,08,52,16.70
2012,07,05,08,53,16.70
2012,07,05,08,54,16.80
2012,07,05,08,55,16.80
2012,07,05,08,56,16.80
2012,07,05,08,57,16.90
2012,07,05,08,58,16.90
2012,07,05,08,59,17.00
2012,07,05,09,00,17.10
2012,07,05,09,01,17.10
2012,07,05,09,02,17.20
2012,07,05,09,03,17.30
2012,07,05,09,04,17.40
2012,07,05,09,05,17.40
2012,07,05,09,06,17.50
2012,07,05,09,07,17.60
2012,07,05,09,08,17.60
2012,07,05,09,09,17.60
2012,07,05,09,10,17.60
2012,07,05,09,11,17.70
2012,07,05,09,12,17.70
2012,07,05,09,13,17.70
2012,07,05,09,14,17.70
2012,07,05,09,15,17.80
2012,07,05,09,16,17.80
2012,07,05,09,17,17.80
2012,07,05,09,18,17.70
2012,07,05,09,19,17.70
2012,07,05,09,20,17.60
2012,07,05,09,21,17.50
2012,07,05,09,22,17.40
2012,07,05,09,23,17.30
2012,07,05,09,24,17.20
2012,07,05,09,25,17.10
2012,07,05,09,26,17.10
2012,07,05,09,27,17.00
2012,07,05,09,28,16.90
2012,07,05,09,29,16.90
2012,07,05,09,30,16.90
2012,07,05,09,31,16.90
2012,07,05,09,32,16.90
2012,07,05,09,33,16.80
2012,07,05,09,34,16.80
2012,07,05,09,35,16.80
2012,07,05,09,36,16.80
2012,07,05,09,37,16.90
2012,07,05,09,38,16.90
2012,07,05,09,39,17.00
2012,07,05,09,40,17.00
2012,07,05,09,41,17.00
2012,07,05,09,42,17.10
2012,07,05,09,43,17.00
2012,07,05,09,44,17.00
2012,07,05,09,45,17.00
2012,07,05,09,46,17.00
2012,07,05,09,47,16.90
2012,07,05,09,48,16.90
2012,07,05,09,49,16.90
2012,07,05,09,50,16.90
2012,07,05,09,51,16.90
2012,07,05,09,52,16.80
2012,07,05,09,53,16.80
2012,07,05,09,54,16.80
2012,07,05,09,55,16.80
2012,07,05,09,56,16.90
2012,07,05,09,57,17.00
2012,07,05,09,58,17.10
2012,07,05,09,59,17.10
2012,07,05,10,00,17.20
2012,07,05,10,01,17.20
2012,07,05,10,02,17.10
2012,07,05,10,03,17.00
2012,07,05,10,04,16.80
2012,07,05,10,05,16.80
2012,07,05,10,06,16.80
2012,07,05,10,07,17.00
2012,07,05,10,08,17.10
2012,07,05,10,09,17.20
2012,07,05,10,10,17.20
2012,07,05,10,11,17.20
2012,07,05,10,12,17.30
2012,07,05,10,13,17.40
2012,07,05,10,14,17.50
2012,07,05,10,15,17.50
2012,07,05,10,16,17.50
2012,07,05,10,17,17.50
2012,07,05,10,18,17.60
2012,07,05,10,19,17.60
2012,07,05,10,20,17.60
2012,07,05,10,21,17.60
2012,07,05,10,22,17.70
2012,07,05,10,23,17.80
2012,07,05,10,24,17.90
2012,07,05,10,25,18.00
2012,07,05,10,26,18.10
2012,07,05,10,27,18.20
2012,07,05,10,28,18.20
2012,07,05,10,29,18.30
2012,07,05,10,30,18.30
2012,07,05,10,31,18.40
2012,07,05,10,32,18.50
2012,07,05,10,33,18.50
2012,07,05,10,34,18.60
2012,07,05,10,35,18.60
2012,07,05,10,36,18.70
2012,07,05,10,37,18.70
2012,07,05,10,38,18.70
2012,07,05,10,39,18.70
2012,07,05,10,40,18.70
2012,07,05,10,41,18.70
2012,07,05,10,42,18.70
2012,07,05,10,43,18.70
2012,07,05,10,44,18.80
2012,07,05,10,45,18.80
2012,07,05,10,46,18.80
2012,07,05,10,47,18.70
2012,07,05,10,48,18.70
2012,07,05,10,49,18.80
2012,07,05,10,50,18.80
2012,07,05,10,51,18.80
2012,07,05,10,52,18.80
2012,07,05,10,53,18.80
2012,07,05,10,54,18.80
2012,07,05,10,55,18.70
2012,07,05,10,56,18.60
2012,07,05,10,57,18.60
2012,07,05,10,58,18.60
2012,07,05,10,59,18.60
2012,07,05,11,00,18.50
2012,07,05,11,01,18.50
2012,07,05,11,02,18.40
2012,07,05,11,03,18.40
2012,07,05,11,04,18.30
2012,07,05,11,05,18.20
2012,07,05,11,06,18.20
2012,07,05,11,07,18.20
2012,07,05,11,08,18.30
2012,07,05,11,09,18.40
2012,07,05,11,10,18.50
2012,07,05,11,11,18.60
2012,07,05,11,12,18.80
2012,07,05,11,13,18.90
2012,07,05,11,14,19.00
2012,07,05,11,15,18.90
2012,07,05,11,16,18.90
2012,07,05,11,17,18.90
2012,07,05,11,18,18.80
2012,07,05,11,19,18.70
2012,07,05,11,20,18.70
2012,07,05,11,21,18.70
2012,07,05,11,22,18.80
2012,07,05,11,23,18.80
2012,07,05,11,24,18.80
2012,07,05,11,25,18.90
2012,07,05,11,26,18.90
2012,07,05,11,27,18.80
2012,07,05,11,28,18.80
2012,07,05,11,29,18.80
2012,07,05,11,30,18.90
2012,07,05,11,31,19.00
2012,07,05,11,32,19.10
2012,07,05,11,33,19.20
2012,07,05,11,34,19.30
2012,07,05,11,35,19.30
2012,07,05,11,36,19.30
2012,07,05,11,37,19.20
2012,07,05,11,38,19.10
2012,07,05,11,39,19.00
2012,07,05,11,40,19.00
2012,07,05,11,41,18.90
2012,07,05,11,42,18.90
2012,07,05,11,43,19.00
2012,07,05,11,44,19.10
2012,07,05,11,45,19.20
2012,07,05,11,46,19.30
2012,07,05,11,47,19.30
2012,07,05,11,48,19.30
2012,07,05,11,49,19.40
2012,07,05,11,50,19.50
2012,07,05,11,51,19.50
2012,07,05,11,52,19.60
2012,07,05,11,53,19.70
2012,07,05,11,54,19.80
2012,07,05,11,55,19.80
2012,07,05,11,56,19.80
2012,07,05,11,57,19.90
2012,07,05,11,58,19.90
2012,07,05,11,59,19.90
2012,07,05,12,00,19.90
2012,07,05,12,01,19.90
2012,07,05,12,02,19.90
2012,07,05,12,03,19.90
2012,07,05,12,04,19.90
2012,07,05,12,05,19.90
2012,07,05,12,06,19.90
2012,07,05,12,07,19.90
2012,07,05,12,08,19.90
2012,07,05,12,09,19.80
2012,07,05,12,10,19.80
2012,07,05,12,11,19.80
2012,07,05,12,12,19.80
2012,07,05,12,13,19.90
2012,07,05,12,14,19.90
2012,07,05,12,15,19.90
2012,07,05,12,16,19.90
2012,07,05,12,17,19.90
2012,07,05,12,18,19.90
2012,07,05,12,19,19.80
2012,07,05,12,20,19.60
2012,07,05,12,21,19.60
2012,07,05,12,22,19.60
2012,07,05,12,23,19.50
2012,07,05,12,24,19.40
2012,07,05,12,25,19.30
2012,07,05,12,26,19.20
2012,07,05,12,27,19.10
2012,07,05,12,28,19.00
2012,07,05,12,29,18.90
2012,07,05,12,30,18.80
2012,07,05,12,31,18.80
2012,07,05,12,32,18.80
2012,07,05,12,33,18.90
2012,07,05,12,34,19.10
2012,07,05,12,35,19.10
2012,07,05,12,36,19.10
2012,07,05,12,37,19.20
2012,07,05,12,38,19.10
2012,07,05,12,39,19.00
2012,07,05,12,40,18.90
2012,07,05,12,41,18.90
2012,07,05,12,42,19.00
2012,07,05,12,43,19.10
2012,07,05,12,44,19.20
2012,07,05,12,45,19.20
2012,07,05,12,46,19.20
2012,07,05,12,47,19.20
2012,07,05,12,48,19.30
2012,07,05,12,49,19.40
2012,07,05,12,50,19.60
2012,07,05,12,51,19.80
2012,07,05,12,52,19.90
2012,07,05,12,53,19.90
2012,07,05,12,54,20.00
2012,07,05,12,55,20.00
2012,07,05,12,56,19.90
2012,07,05,12,57,19.90
2012,07,05,12,58,20.00
2012,07,05,12,59,20.00
2012,07,05,13,00,20.20
2012,07,05,13,01,20.20
2012,07,05,13,02,20.20
2012,07,05,13,03,20.10
2012,07,05,13,04,20.00
2012,07,05,13,05,20.00
2012,07,05,13,06,20.10
2012,07,05,13,07,20.20
2012,07,05,13,08,20.30
2012,07,05,13,09,20.20
2012,07,05,13,10,20.20
2012,07,05,13,11,20.20
2012,07,05,13,12,20.00
2012,07,05,13,13,19.80
2012,07,05,13,14,19.80
2012,07,05,13,15,19.80
2012,07,05,13,16,19.80
2012,07,05,13,17,19.90
2012,07,05,13,18,19.80
2012,07,05,13,19,19.80
2012,07,05,13,20,19.90
2012,07,05,13,21,19.90
2012,07,05,13,22,19.90
2012,07,05,13,23,19.80
2012,07,05,13,24,19.90
2012,07,05,13,25,19.80
2012,07,05,13,26,19.80
2012,07,05,13,27,19.90
2012,07,05,13,28,19.90
2012,07,05,13,29,19.80
2012,07,05,13,30,19.70
2012,07,05,13,31,19.80
2012,07,05,13,32,19.80
2012,07,05,13,33,19.90
2012,07,05,13,34,20.00
2012,07,05,13,35,20.10
2012,07,05,13,36,20.30
2012,07,05,13,37,20.50
2012,07,05,13,38,20.70
2012,07,05,13,39,20.60
2012,07,05,13,40,20.40
2012,07,05,13,41,20.20
2012,07,05,13,42,20.20
2012,07,05,13,43,20.20
2012,07,05,13,44,20.30
2012,07,05,13,45,20.50
2012,07,05,13,46,20.60
2012,07,05,13,47,20.70
2012,07,05,13,48,20.80
2012,07,05,13,49,20.90
2012,07,05,13,50,20.90
2012,07,05,13,51,20.90
2012,07,05,13,52,20.80
2012,07,05,13,53,20.80
2012,07,05,13,54,20.70
2012,07,05,13,55,20.60
2012,07,05,13,56,20.60
2012,07,05,13,57,20.50
2012,07,05,13,58,20.60
2012,07,05,13,59,20.70
2012,07,05,14,00,20.70
2012,07,05,14,01,20.80
2012,07,05,14,02,20.90
2012,07,05,14,03,20.90
2012,07,05,14,04,20.90
2012,07,05,14,05,20.90
2012,07,05,14,06,20.90
2012,07,05,14,07,21.00
2012,07,05,14,08,21.00
2012,07,05,14,09,20.90
2012,07,05,14,10,20.80
2012,07,05,14,11,20.80
2012,07,05,14,12,20.80
2012,07,05,14,13,20.90
2012,07,05,14,14,21.00
2012,07,05,14,15,20.90
2012,07,05,14,16,20.90
2012,07,05,14,17,20.90
2012,07,05,14,18,20.90
2012,07,05,14,19,20.90
2012,07,05,14,20,20.90
2012,07,05,14,21,21.00
2012,07,05,14,22,21.10
2012,07,05,14,23,21.10
2012,07,05,14,24,21.10
2012,07,05,14,25,21.20
2012,07,05,14,26,21.20
2012,07,05,14,27,21.20
2012,07,05,14,28,20.90
2012,07,05,14,29,20.80
2012,07,05,14,30,20.70
2012,07,05,14,31,20.60
2012,07,05,14,32,20.60
2012,07,05,14,33,20.60
2012,07,05,14,34,20.60
2012,07,05,14,35,20.80
2012,07,05,14,36,20.80
2012,07,05,14,37,20.90
2012,07,05,14,38,20.80
2012,07,05,14,39,20.60
2012,07,05,14,40,20.60
2012,07,05,14,41,20.60
2012,07,05,14,42,20.70
2012,07,05,14,43,20.80
2012,07,05,14,44,20.80
2012,07,05,14,45,20.70
2012,07,05,14,46,20.60
2012,07,05,14,47,20.60
2012,07,05,14,48,20.50
2012,07,05,14,49,20.40
2012,07,05,14,50,20.40
2012,07,05,14,51,20.50
2012,07,05,14,52,20.60
2012,07,05,14,53,20.70
2012,07,05,14,54,20.80
2012,07,05,14,55,21.00
2012,07,05,14,56,21.00
2012,07,05,14,57,21.10
2012,07,05,14,58,21.20
2012,07,05,14,59,21.20
2012,07,05,15,00,21.30
2012,07,05,15,01,21.30
2012,07,05,15,02,21.20
2012,07,05,15,03,21.10
2012,07,05,15,04,21.10
2012,07,05,15,05,21.10
2012,07,05,15,06,21.20
2012,07,05,15,07,21.30
2012,07,05,15,08,21.30
2012,07,05,15,09,21.40
2012,07,05,15,10,21.40
2012,07,05,15,11,21.40
2012,07,05,15,12,21.40
2012,07,05,15,13,21.40
2012,07,05,15,14,21.30
2012,07,05,15,15,21.30
2012,07,05,15,16,21.40
2012,07,05,15,17,21.40
2012,07,05,15,18,21.50
2012,07,05,15,19,21.60
2012,07,05,15,20,21.60
2012,07,05,15,21,21.60
2012,07,05,15,22,21.70
2012,07,05,15,23,21.80
2012,07,05,15,24,21.80
2012,07,05,15,25,21.80
2012,07,05,15,26,21.80
2012,07,05,15,27,21.80
2012,07,05,15,28,21.70
2012,07,05,15,29,21.70
2012,07,05,15,30,21.70
2012,07,05,15,31,21.80
2012,07,05,15,32,21.80
2012,07,05,15,33,21.60
2012,07,05,15,34,21.50
2012,07,05,15,35,21.50
2012,07,05,15,36,21.50
2012,07,05,15,37,21.60
2012,07,05,15,38,21.50
2012,07,05,15,39,21.40
2012,07,05,15,40,21.40
2012,07,05,15,41,21.40
2012,07,05,15,42,21.40
2012,07,05,15,43,21.40
2012,07,05,15,44,21.50
2012,07,05,15,45,21.60
2012,07,05,15,46,21.70
2012,07,05,15,47,21.80
2012,07,05,15,48,21.80
2012,07,05,15,49,21.80
2012,07,05,15,50,21.80
2012,07,05,15,51,21.70
2012,07,05,15,52,21.70
2012,07,05,15,53,21.80
2012,07,05,15,54,21.80
2012,07,05,15,55,21.70
2012,07,05,15,56,21.70
2012,07,05,15,57,21.60
2012,07,05,15,58,21.60
2012,07,05,15,59,21.60
2012,07,05,16,00,21.60
2012,07,05,16,01,21.60
2012,07,05,16,02,21.70
2012,07,05,16,03,21.70
2012,07,05,16,04,21.70
2012,07,05,16,05,21.80
2012,07,05,16,06,21.80
2012,07,05,16,07,21.80
2012,07,05,16,08,21.90
2012,07,05,16,09,22.00
2012,07,05,16,10,22.00
2012,07,05,16,11,22.00
2012,07,05,16,12,21.90
2012,07,05,16,13,21.90
2012,07,05,16,14,21.80
2012,07,05,16,15,21.80
2012,07,05,16,16,21.80
2012,07,05,16,17,21.80
2012,07,05,16,18,21.80
2012,07,05,16,19,21.80
2012,07,05,16,20,21.80
2012,07,05,16,21,21.80
2012,07,05,16,22,21.90
2012,07,05,16,23,21.90
2012,07,05,16,24,21.80
2012,07,05,16,25,21.80
2012,07,05,16,26,21.80
2012,07,05,16,27,21.80
2012,07,05,16,28,21.80
2012,07,05,16,29,21.80
2012,07,05,16,30,21.80
2012,07,05,16,31,21.80
2012,07,05,16,32,21.80
2012,07,05,16,33,21.80
2012,07,05,16,34,21.90
2012,07,05,16,35,22.00
2012,07,05,16,36,22.00
2012,07,05,16,37,22.00
2012,07,05,16,38,21.90
2012,07,05,16,39,21.90
2012,07,05,16,40,21.90
2012,07,05,16,41,21.80
2012,07,05,16,42,21.80
2012,07,05,16,43,21.80
2012,07,05,16,44,21.80
2012,07,05,16,45,21.90
2012,07,05,16,46,21.90
2012,07,05,16,47,21.80
2012,07,05,16,48,21.80
2012,07,05,16,49,21.80
2012,07,05,16,50,21.80
2012,07,05,16,51,21.80
2012,07,05,16,52,21.80
2012,07,05,16,53,21.80
2012,07,05,16,54,21.70
2012,07,05,16,55,21.70
2012,07,05,16,56,21.70
2012,07,05,16,57,21.70
2012,07,05,16,58,21.80
2012,07,05,16,59,21.80
2012,07,05,17,00,21.80
2012,07,05,17,01,21.90
2012,07,05,17,02,21.90
2012,07,05,17,03,21.90
2012,07,05,17,04,21.80
2012,07,05,17,05,21.80
2012,07,05,17,06,21.80
2012,07,05,17,07,21.80
2012,07,05,17,08,21.80
2012,07,05,17,09,21.80
2012,07,05,17,10,21.80
2012,07,05,17,11,21.80
2012,07,05,17,12,21.80
2012,07,05,17,13,21.70
2012,07,05,17,14,21.70
2012,07,05,17,15,21.80
2012,07,05,17,16,21.80
2012,07,05,17,17,21.80
2012,07,05,17,18,21.80
2012,07,05,17,19,21.80
2012,07,05,17,20,21.90
2012,07,05,17,21,21.80
2012,07,05,17,22,21.90
2012,07,05,17,23,21.90
2012,07,05,17,24,22.00
2012,07,05,17,25,22.00
2012,07,05,17,26,21.90
2012,07,05,17,27,21.80
2012,07,05,17,28,21.80
2012,07,05,17,29,21.80
2012,07,05,17,30,21.80
2012,07,05,17,31,21.70
2012,07,05,17,32,21.70
2012,07,05,17,33,21.70
2012,07,05,17,34,21.70
2012,07,05,17,35,21.70
2012,07,05,17,36,21.80
2012,07,05,17,37,21.80
2012,07,05,17,38,21.80
2012,07,05,17,39,21.80
2012,07,05,17,40,21.80
2012,07,05,17,41,21.80